Weather in Gornyy

Russia / Novosibirsk Oblast     55°07′08″N   83°53′53″E
temp.,
°C
wind,
m/s
gust,
m/s
humid.,
%
clouds,
%
prec.,
mm/h
press.,
hPa
HPBL,
m
27 february, sat
sat2701:00−24wsw61293100 0.1 1036718
04:00−25sw61194100 0.1 1036620
07:00−25sw61194100 0.2 1037516
10:00−24sw61093100 0.1 1037551
13:00−22sw6991100 0.1 1038626
16:00−21sw5890100 0.1 1038689
19:00−23sw3796100 0.1 1038141
22:00−27sw479881 0.0 1039113
28 february, sun
sun2801:00−29sw449756 0.0 103979
04:00−30ssw349729 0.0 103963
07:00−30ssw339739 0.0 103938
10:00−26s369553 0.0 1038175
13:00−19s489162 0.0 1036374
16:00−15s4887100 0.0 1032532
19:00−15sse3692100 0.0 1029145
22:00−14sse4995100 0.3 1026317
1 march, mon
mon101:00−11s51194100 0.8 1022509
04:00−10sse41195100 0.6 1018553
07:00−8s51195100 1.8 1015638
10:00−6s61194100 1.5 1012716
13:00−3ssw81395100 3.4 1009890
16:000sw101697100 2.3 1008973
19:000wsw81397100 5.6 1008848
22:00−8n4696100 2.0 1010179
2 march, tue
tue201:00−11n3596100 2.8 1012179
04:00−14nne239696 0.2 101580
07:00−16ne229789 0.3 101722
10:00−14ene129497 0.2 1018119
13:00−11wsw129096 0.4 1019371
16:00−9wsw2391100 0.3 1018413
19:00−12w119698 0.5 101721
22:00−14e119793 0.1 101620
3 march, wed
wed301:00−14ene239797 0.1 101541
04:00−13ene3596100 0.1 1013140
07:00−13ne3596100 0.6 1013170
10:00−13nne2395100 0.4 1013166
13:00−11nne2191100 0.8 1015272
16:00−10n2292100 0.4 1016251
19:00−13nne2396100 0.9 1017114
22:00−16nne129794 0.3 102020